Location: Newark
(12.4436°N, 0.6167°W)
Time: 18:10:04
(UTC+00:00)

deb Explorer IX - Pass Details

Date: 13 December 2019
Orbit: 548 x 1101 km, 38.8° (Epoch: 28 January)

Event Time Altitude Azimuth Distance (km) Brightness Sun altitude
Rises 22:22:10 0° 306° (NW) 3,842 - -65.1°
Reaches altitude 10° 22:24:52 10° 305° (NW) 2,920 - -65.7°
Maximum altitude 22:32:07 76° 221° (SW) 1,129 - -67.2°
Drops below altitude 10° 22:39:17 10° 136° (SE) 2,878 - -68.7°
Sets 22:41:56 0° 134° (SE) 3,783 - -69.2°
